Tracking 31027 objects as of 19-Jul-2025
HD Live streaming from Space Station
objects crossing your sky now

FENGYUN 1C DEB

Track FENGYUN 1C DEB now!
10-day predictions


NORAD ID: 29890
Int'l Code: 1999-025GL
Perigee: 813.7 km
Apogee: 836.1 km
Inclination: 99.5 °
Period: 101.2 minutes
Semi major axis: 7195 km
RCS: 0.052 m2 (small)
Launch date: May 10, 1999
Source: People's Republic of China (PRC)
Launch site: Taiyaun Space Center, China (TSC)

Note: This is SATELLITE DEBRIS
Your satellite tracking list
STARLINK-5403
Track 1 satellite(s)




NASA's NSSDC Master Catalog

Two Line Element Set (TLE):
1 29890U 99025GL  25199.28360413  .00001158  00000-0  54382-3 0  9996
2 29890  99.4596 310.0038 0015541 130.1937 230.0601 14.22238529953543
Source of the keplerian elements: AFSPC